Content
SEND FEEDBACK

Daily
Averages
Monthly
Summary
Canada

INGONISH BEACH, NOVA SCOTIA


Home > North America > Canada > Nova Scotia
Elevation: 16 feet     Latitude: 46 39N     Longitude: 060 24W

WEATHER
 
SELECT A DAY
Number of Records: 127,861;   Date Range: 12/10/00 - 8/20/14
 
SHARE

PRINT THIS DATA

[ ← Previous Day ]
WEATHER ALMANAC - FEBRUARY 1, 2013
[ Next Day → ]
[ °C ]   °F
Weather ElementAverageHighLow
Temperature31.3 °F40.6 °F (1:00 am)21.7 °F (11:00 pm)
Dewpoint18.6 °F34.3 °F (1:00 am)9.1 °F (11:00 pm)
Humidity58.3 %85 % (4:00 am)35 % (2:00 pm)
Barometer29.42 in29.74 in (11:00 pm)29.11 in (1:00 am)
Wind Speed6.4 mph10.4 mph (3:00 pm)
Wind Gust25.3 mph (3:00 pm)
Weather ElementAverage
Wind DirectionWSW (243.5 °)

Weather ElementTotal
Precipitation0.02 in
Heating Degree Days33.9 (Base 65)
Averaged from 26 records on February 1, 2013
WEATHER CONDITIONS BREAKOUT
WIND DIRECTION BREAKOUT
WEATHER BY HOUR - FEBRUARY 1, 2013
[ °C ]   °F
Local TimeTemperatureDewpointHumidityBarometerVisibilityWind DirectionWind SpeedGust SpeedPrecipitationEventsConditions
1:00 AM40.6 °F34.3 °F78 %29.11 inSSW (210°)8.1 mph
2:00 AM40.0 °F31.0 °F61 %29.13 inSSW (210°)8.1 mph
2:00 AM40.5 °F31.3 °F70 %29.13 inSSW (210°)8.1 mph19.6 mph
3:00 AM37.8 °F31.8 °F79 %29.17 inSW (230°)6.9 mph
4:00 AM34.9 °F30.7 °F85 %29.19 inSW (220°)3.5 mph0.02 in
5:00 AM34.9 °F25.7 °F69 %29.21 inSW (230°)5.8 mph
6:00 AM34.7 °F24.4 °F66 %29.24 inSW (220°)6.9 mph
7:00 AM34.0 °F24.1 °F67 %29.28 inWSW (240°)8.1 mph24.2 mph
8:00 AM33.0 °F18.0 °F41 %29.31 inWSW (240°)5.8 mph
8:00 AM33.3 °F18.0 °F53 %29.31 inWSW (240°)5.8 mph18.4 mph
9:00 AM33.3 °F15.8 °F49 %29.35 inSW (230°)6.9 mph
10:00 AM34.2 °F14.5 °F45 %29.37 inSW (230°)9.2 mph21.9 mph
11:00 AM34.3 °F12.6 °F41 %29.40 inWSW (250°)9.2 mph24.2 mph
1:00 PM31.6 °F17.8 °F57 %29.42 inWSW (250°)6.9 mph18.4 mph
2:00 PM31.0 °F14.0 °F35 %29.44 inWSW (250°)9.2 mph
2:00 PM31.5 °F13.8 °F48 %29.44 inWSW (250°)9.2 mph20.7 mph
3:00 PM30.7 °F12.4 °F47 %29.47 inWSW (240°)10.4 mph25.3 mph
4:00 PM29.3 °F12.6 °F50 %29.51 inWSW (250°)9.2 mph19.6 mph
5:00 PM28.4 °F12.6 °F52 %29.55 inWSW (250°)10.4 mph21.9 mph
6:00 PM25.5 °F16.5 °F69 %29.61 inWest (260°)3.5 mph
7:00 PM24.4 °F14.0 °F65 %29.65 inWest (270°)2.3 mph
8:00 PM24.0 °F13.0 °F49 %29.68 inWest (260°)2.3 mph
8:00 PM23.9 °F12.6 °F62 %29.68 inWest (260°)2.3 mph
9:00 PM23.4 °F10.9 °F59 %29.71 inWSW (250°)3.5 mph
10:00 PM22.5 °F10.8 °F61 %29.73 inWest (270°)2.3 mph
11:00 PM21.7 °F9.1 °F58 %29.74 inNW (310°)2.3 mph
Hourly data recorded from CXIB, located miles away from Ingonish Beach, Nova Scotia







STORIES FROM OUR PARTNERS